• Join FlightAware (Why Join?)
  • Login
  • US Flag 
05:59PM EDT


 

Airport Tracker/Info


-or-


 

Live Flight TrackerFlight Track Log ✈ AWE1940 ✈ 26-Apr-2013 ✈ KRSW - KCLT

Flight Track Log - Related Links

Times and Time Zones

All times are in EDT time to prevent confusion due to time zone crossing. See the AWE1940 flight status page for this flight to view local times or setup timezone preferences in your user account.

Time Position Orientation Groundspeed Altitude Reporting Facility
EDT Latitude Longitude Course Direction KTS MPH feet Rate Location/Type
07:10PM 26.8661 -81.7333 North  Level FlightAware Approximate
07:10PM 26.6600 -81.6958 344° North 279 321 5,700  Level Miami Center
07:11PM 26.9775 -81.7333 North  Level FlightAware Approximate
07:11PM 26.7328 -81.7081 351° North 274 315 8,700  Level Miami Center
07:12PM 27.0847 -81.7605 340° North  Level FlightAware Approximate
07:12PM 26.8117 -81.7183 353° North 274 315 10,800  Level Miami Center
07:13PM 27.1912 -81.7971 343° North  Level FlightAware Approximate
07:13PM 26.9075 -81.7294 354° North 305 351 12,400  Level Miami Center
07:14PM 27.2971 -81.8355 340° North  Level FlightAware Approximate
07:14PM 27.0042 -81.7125 North 326 375 14,900  Level Miami Center
07:15PM 27.4033 -81.8733 344° North  Level FlightAware Approximate
07:15PM 27.1072 -81.6864 13° North 351 404 17,000  Level Miami Center
07:16PM 27.2083 -81.6603 13° North 370 426 18,900 1,920 Climbing Miami Center
07:17PM 27.3303 -81.6328 11° North 387 445 20,900 1,800 Climbing Miami Center
07:18PM 27.4397 -81.6044 13° North 395 455 22,500 1,500 Climbing Miami Center
07:19PM 27.5575 -81.5767 12° North 410 472 24,000 1,560 Climbing Miami Center
07:20PM 27.6628 -81.5506 12° North 423 487 25,700 1,500 Climbing Miami Center
07:21PM 27.7783 -81.5222 12° North 423 487 27,000 1,080 Climbing Miami Center
07:22PM 27.9003 -81.4944 11° North 433 498 27,900 1,080 Climbing Miami Center
07:23PM 28.0203 -81.4664 12° North 433 498 29,200 1,200 Climbing Miami Center
07:24PM 28.1464 -81.4339 13° North 433 498 30,300 1,380 Climbing Miami Center
07:25PM 28.2703 -81.4131 North 438 504 32,000 1,320 Climbing Miami Center
07:26PM 28.3864 -81.4319 352° North 425 489 33,000 900 Climbing Miami Center
07:30PM 28.8503 -81.5486 348° North 429 494 36,600 780 Climbing Jacksonville Center
07:31PM 28.9675 -81.5753 349° North 429 494 37,000 180 Climbing Jacksonville Center
07:32PM 29.0806 -81.6047 347° North 423 487 37,000  Level Jacksonville Center
07:33PM 29.1936 -81.6342 347° North 406 467 37,000  Level Jacksonville Center
07:34PM 29.3169 -81.6661 347° North 406 467 37,000  Level Jacksonville Center
07:35PM 29.4300 -81.6956 347° North 411 473 37,000  Level Jacksonville Center
07:36PM 29.5431 -81.7228 348° North 411 473 37,000  Level Jacksonville Center
07:37PM 29.6558 -81.7503 348° North 411 473 37,000  Level Jacksonville Center
07:38PM 29.7689 -81.7800 347° North 411 473 37,000  Level Jacksonville Center
07:39PM 29.8839 -81.8097 347° North 411 473 37,100  Climbing Jacksonville Center
07:40PM 29.9969 -81.8397 347° North 416 479 37,100 -60 Level Jacksonville Center
07:41PM 30.1036 -81.8603 351° North 416 479 37,000 -60 Descending Jacksonville Center
07:42PM 30.2186 -81.8806 351° North 416 479 37,000  Level Jacksonville Center
07:43PM 30.3375 -81.8719 North 416 479 37,000  Level Jacksonville Center
07:44PM 30.4564 -81.8539 North 422 486 37,000  Level Jacksonville Center
07:45PM 30.5817 -81.8406 North 429 494 37,000  Level Jacksonville Center
07:46PM 30.6964 -81.8247 North 429 494 37,000  Level Jacksonville Center
07:47PM 30.8111 -81.8089 North 419 482 37,000  Level Jacksonville Center
07:48PM 30.9258 -81.7931 North 419 482 37,000  Level Jacksonville Center
07:49PM 31.0447 -81.7772 North 424 488 37,000 -180 Level Jacksonville Center
07:50PM 31.1614 -81.7589 North 424 488 36,700 -600 Descending Jacksonville Center
07:51PM 31.2764 -81.7694 356° North 419 482 35,800 -840 Descending Jacksonville Center
07:52PM 31.3894 -81.7997 347° North 419 482 35,100 -360 Descending Jacksonville Center
07:53PM 31.5128 -81.8350 346° North 411 473 35,100 -60 Level Jacksonville Center
07:54PM 31.6986 -81.8861 347° North 430 495 35,000 -60 Descending Atlanta Center
07:55PM 31.8056 -81.9203 345° North 413 475 35,000  Level Atlanta Center
07:56PM 31.9167 -81.9494 347° North 408 470 35,000  Level Atlanta Center
07:57PM 32.0256 -81.9736 349° North 403 464 35,100  Climbing Atlanta Center
07:58PM 32.1428 -81.9858 355° North 398 458 35,000 -60 Descending Atlanta Center
07:59PM 32.2472 -81.9981 354° North 398 458 35,000  Level Atlanta Center
08:00PM 32.3603 -82.0103 355° North 393 452 35,100  Climbing Atlanta Center
08:01PM 32.4731 -82.0225 355° North 399 459 35,100 -300 Level Atlanta Center
08:02PM 32.5839 -82.0347 355° North 399 459 34,600 -720 Descending Atlanta Center
08:03PM 32.6947 -82.0469 355° North 399 459 33,700 -960 Descending Atlanta Center
08:04PM 32.8078 -82.0592 355° North 404 465 32,700 -1,020 Descending Atlanta Center
08:05PM 32.9247 -82.0714 355° North 409 471 31,700 -1,020 Descending Atlanta Center
08:06PM 33.0439 -82.0861 354° North 416 479 30,700 -960 Descending Atlanta Center
08:07PM 33.1611 -82.1008 354° North 423 487 29,800 -900 Descending Atlanta Center
08:08PM 33.2781 -82.1131 355° North 423 487 29,000 -420 Descending Atlanta Center
08:09PM 33.3975 -82.1278 354° North 423 487 29,000  Level Atlanta Center
08:10PM 33.5125 -82.1403 355° North 423 487 29,000 -300 Level Atlanta Center
08:11PM 33.6294 -82.1528 355° North 423 487 28,400 -840 Descending Atlanta Center
08:12PM 33.7361 -82.1603 357° North 423 487 27,400 -960 Descending Atlanta Center
08:13PM 33.8550 -82.1603 360° North 423 487 26,500 -960 Descending Atlanta Center
08:14PM 33.9675 -82.1528 North 417 480 25,500 -1,020 Descending Atlanta Center
08:15PM 34.0686 -82.0803 31° Northeast 406 467 24,500 -1,320 Descending Atlanta Center
08:16PM 34.1678 -82.0028 33° Northeast 406 467 22,900 -1,500 Descending Atlanta Center
08:17PM 34.2603 -81.9275 34° Northeast 406 467 21,600 -1,560 Descending Atlanta Center
08:18PM 34.3528 -81.8522 34° Northeast 406 467 19,800 -1,920 Descending Atlanta Center
08:19PM 34.4433 -81.7819 33° Northeast 394 453 17,800 -1,920 Descending Atlanta Center
08:20PM 34.5194 -81.7194 34° Northeast 392 451 16,500 -1,440 Descending Atlanta Center
08:20PM 34.5339 -81.7064 37° Northeast 389 448 16,400 -1,800 Descending Atlanta Center
08:21PM 34.6408 -81.6200 34° Northeast 381 438 14,000 -2,040 Descending Atlanta Center
08:22PM 34.7331 -81.5442 34° Northeast 373 429 12,100 -1,020 Descending Atlanta Center
08:23PM 34.8044 -81.4561 45° Northeast 362 417 12,000 -420 Descending Atlanta Center
08:24PM 34.8511 -81.3964 46° Northeast 356 410 11,400 -900 Descending Atlanta Center
08:25PM 34.9139 -81.3133 47° Northeast 340 391 10,400 -1,080 Descending Atlanta Center
08:26PM 34.9422 -81.2769 46° Northeast 314 361 10,000 -420 Descending Atlanta Center
08:26PM 34.9767 -81.2328 46° Northeast 324 373 10,000 -360 Level Atlanta Center
08:27PM 35.0478 -81.1389 47° Northeast 302 348 9,400 -480 Descending Atlanta Center
08:28PM 35.1086 -81.0683 43° Northeast 278 320 9,000 -240 Descending Atlanta Center
08:29PM 35.1689 -81.0661 North 261 300 9,000 -420 Level Atlanta Center
08:30PM 35.2528 -81.0758 355° North 220 253 8,200 -960 Descending Atlanta Center
08:31PM 35.3114 -81.0814 356° North 222 255 6,900 -1,680 Descending Atlanta Center
08:32PM 35.3761 -81.0867 356° North 231 266 5,000 -1,440 Descending Atlanta Center
08:33PM 35.4144 -81.0369 47° Northeast 233 268 4,000 -540 Descending Atlanta Center
08:34PM 35.3758 -80.9950 138° Southeast 189 217 4,000  Level Atlanta Center